Flag for Germany Weather past 2 weeks in Hennef (Sieg), North Rhine-Westphalia, Germany

Now
72 °F

Sunny.


Feels Like: 77 °F
Forecast: 60 / 75 °F
Wind: 7 mph from South

Location: Bonn-Hangelar

Current Time: Aug 3, 2015 at 7:39:20 AM

Latest Report: Aug 3, 2015 at 7:00 AM


Visibility: 14 mi

Pressure: 29.96 "Hg

Humidity: 45%

Dew point: 49 °F

Location of Hennef (Sieg)Location

Historic Weather in Hennef (Sieg) — Graph

°F

Hennef (Sieg) temperature yesterday

Maximum temperature yesterday: 78 °F (at 6:00 PM)
Minimum temperature yesterday: 53 °F (at 5:00 AM)
Average temperature yesterday: 68 °F

Past Weeks' High & Low Weather Summary

 TemperatureHumidityPressure
High78 °F (Aug 2, 6:00 PM)100% (Jul 19, 7:00 AM)30.16 "Hg (Jul 19, 7:00 AM)
Low46 °F (Jul 31, 5:00 AM)36% (Aug 2, 6:00 PM)29.50 "Hg (Jul 25, 7:00 AM)
Average62 °F77%29.90 "Hg
* Reported Jul 19 7:00 AM — Aug 3 6:00 AM, Hennef (Sieg), Weather by CustomWeather, © 2015

Note: Actual official high and low records may vary slightly from our data, if they occured in-between our weather recording intervals... More about our weather records

Advertising

Hennef (Sieg) weather history for previous 24 hours

 ConditionsComfort  
Time TempWeatherWind HumidityBarometerVisibility
6:00 AM
Mon, Aug 3
69 °FSunny.6 mph49%29.96 "Hg25 mi
5:00 AM69 °FClear.6 mph50%29.96 "Hg25 mi
4:00 AM65 °FPassing clouds.3 mph57%29.99 "Hg22 mi
3:00 AM68 °FOvercast.6 mph52%29.99 "Hg25 mi
2:00 AM67 °FOvercast.3 mph60%30.01 "Hg22 mi
1:00 AM63 °FOvercast.3 mph72%30.01 "Hg18 mi
11:00 PM
Sun, Aug 2
63 °FOvercast.5 mph69%30.03 "Hg16 mi
10:00 PM65 °FOvercast.3 mph65%30.03 "Hg18 mi
9:00 PM70 °FOvercast.5 mph52%30.02 "Hg19 mi
8:00 PM75 °FOvercast.5 mph43%30.02 "Hg25 mi
7:00 PM78 °FOvercast.5 mph38%30.03 "Hg19 mi
6:00 PM78 °FOvercast.5 mph36%30.04 "Hg22 mi
5:00 PM77 °FOvercast.3 mph40%30.06 "Hg22 mi
4:00 PM76 °FOvercast.2 mph40%30.07 "Hg17 mi
3:00 PM77 °FScattered clouds.2 mph41%30.08 "Hg16 mi
2:00 PM75 °FScattered clouds.3 mph46%30.10 "Hg16 mi
1:00 PM73 °FPartly sunny.3 mph46%30.12 "Hg17 mi
12:00 PM71 °FPartly sunny.3 mph48%30.13 "Hg11 mi
11:00 AM70 °FOvercast.3 mph51%30.14 "Hg16 mi
10:00 AM67 °FScattered clouds.3 mph54%30.13 "Hg13 mi
9:00 AM65 °FScattered clouds.3 mph64%30.12 "Hg11 mi
8:00 AM59 °FOvercast.2 mph82%30.13 "Hg9 mi
7:00 AM55 °FOvercast.1 mph84%30.13 "Hg10 mi
Weather by CustomWeather, © 2015

See weather overviewHow to use our weather pages